| time (UTC) | temp F | wind direction | speed MPH | gust MPH | rain 1hr in | rain 24hr in | rain mn in | humidity % | barometer mb |
| 20260504181555 | 43 | 115 | 8.0 | 19.0 | 0.01 | 0.03 | 0.03 | 89 | 988.5 |
| 20260504180053 | 42 | 85 | 10.0 | 18.0 | 0.01 | 0.03 | 0.03 | 91 | 988.4 |
| 20260504174559 | 41 | 114 | 8.0 | 17.0 | 0.01 | 0.03 | 0.03 | 92 | 988.4 |
| 20260504173057 | 41 | 56 | 8.0 | 18.0 | 0.01 | 0.03 | 0.03 | 92 | 988.4 |
| 20260504171549 | 41 | 100 | 9.0 | 19.0 | 0.01 | 0.02 | 0.02 | 90 | 988.4 |
| 20260504081552 | 31 | 34 | 3.0 | 5.0 | 0.00 | 0.02 | 0.00 | 76 | 988.7 |
| 20260504044558 | 32 | 156 | 3.0 | 9.0 | 0.00 | 0.03 | 0.00 | 76 | 988.3 |
| 20260504043052 | 32 | 151 | 2.0 | 8.0 | 0.00 | 0.03 | 0.00 | 76 | 988.5 |
| 20260504041554 | 31 | 113 | 3.0 | 8.0 | 0.00 | 0.03 | 0.00 | 78 | 988.4 |
| 20260504034559 | 32 | 136 | 3.0 | 7.0 | 0.00 | 0.03 | 0.03 | 77 | 988.2 |
| 20260504033125 | 31 | 104 | 2.0 | 8.0 | 0.00 | 0.03 | 0.03 | 78 | 988.2 |
| 20260504031549 | 31 | 126 | 2.0 | 7.0 | 0.00 | 0.03 | 0.03 | 77 | 988.2 |
| 20260504030049 | 32 | 120 | 4.0 | 8.0 | 0.00 | 0.03 | 0.03 | 76 | 988.3 |
| 20260504024550 | 32 | 159 | 3.0 | 5.0 | 0.00 | 0.03 | 0.03 | 76 | 988.3 |
| 20260504023101 | 31 | 124 | 1.0 | 4.0 | 0.00 | 0.03 | 0.03 | 76 | 988.3 |
| 20260504021552 | 32 | 144 | 2.0 | 5.0 | 0.00 | 0.03 | 0.03 | 76 | 988.3 |
| 20260504020057 | 32 | 125 | 2.0 | 5.0 | 0.00 | 0.03 | 0.03 | 76 | 988.2 |
| 20260504014551 | 32 | 156 | 2.0 | 6.0 | 0.00 | 0.03 | 0.03 | 76 | 988.3 |
| 20260504013104 | 32 | 152 | 4.0 | 9.0 | 0.00 | 0.03 | 0.03 | 75 | 988.3 |
| 20260504011552 | 32 | 170 | 5.0 | 8.0 | 0.00 | 0.03 | 0.03 | 75 | 988.2 |
| 20260504010104 | 33 | 158 | 4.0 | 9.0 | 0.00 | 0.03 | 0.03 | 74 | 988.1 |
| 20260504004605 | 33 | 166 | 8.0 | 13.0 | 0.00 | 0.03 | 0.03 | 73 | 987.8 |
| 20260504003051 | 34 | 149 | 9.0 | 15.0 | 0.00 | 0.03 | 0.03 | 72 | 987.5 |
| 20260504001554 | 34 | 160 | 8.0 | 15.0 | 0.00 | 0.03 | 0.03 | 71 | 987.4 |
| 20260504000053 | 35 | 162 | 11.0 | 17.0 | 0.00 | 0.03 | 0.03 | 70 | 987.2 |
| 20260503234551 | 36 | 168 | 14.0 | 21.0 | 0.00 | 0.03 | 0.03 | 66 | 987.2 |
| 20260503233054 | 36 | 180 | 16.0 | 25.0 | 0.00 | 0.03 | 0.03 | 65 | 987.1 |
| 20260503231549 | 36 | 144 | 15.0 | 26.0 | 0.00 | 0.03 | 0.03 | 64 | 987.2 |
| 20260503230057 | 36 | 155 | 15.0 | 27.0 | 0.00 | 0.03 | 0.03 | 65 | 987.0 |
| 20260503224549 | 37 | 166 | 12.0 | 22.0 | 0.00 | 0.03 | 0.03 | 64 | 986.8 |
| 20260503223057 | 37 | 163 | 15.0 | 25.0 | 0.00 | 0.03 | 0.03 | 62 | 986.7 |
| 20260503221552 | 38 | 131 | 13.0 | 26.0 | 0.00 | 0.03 | 0.03 | 61 | 986.8 |
| 20260503220050 | 37 | 163 | 16.0 | 25.0 | 0.00 | 0.03 | 0.03 | 63 | 986.6 |
| 20260503214550 | 37 | 175 | 15.0 | 22.0 | 0.00 | 0.03 | 0.03 | 62 | 986.6 |
| 20260503213104 | 38 | 158 | 12.0 | 21.0 | 0.00 | 0.03 | 0.03 | 62 | 986.6 |
| 20260503211549 | 38 | 175 | 12.0 | 26.0 | 0.00 | 0.03 | 0.03 | 59 | 986.6 |
| 20260503210057 | 39 | 130 | 15.0 | 23.0 | 0.00 | 0.03 | 0.03 | 59 | 986.5 |
| 20260503204555 | 39 | 164 | 11.0 | 23.0 | 0.00 | 0.03 | 0.03 | 58 | 986.6 |
| 20260503203051 | 39 | 175 | 16.0 | 25.0 | 0.00 | 0.03 | 0.03 | 58 | 986.4 |
| 20260503201553 | 39 | 156 | 12.0 | 25.0 | 0.00 | 0.03 | 0.03 | 58 | 986.4 |
| 20260503200057 | 39 | 146 | 16.0 | 27.0 | 0.00 | 0.03 | 0.03 | 56 | 986.5 |
| 20260503194556 | 40 | 141 | 13.0 | 23.0 | 0.00 | 0.03 | 0.03 | 57 | 986.6 |
| 20260503193055 | 40 | 162 | 13.0 | 21.0 | 0.00 | 0.03 | 0.03 | 57 | 986.7 |
| 20260503191610 | 40 | 168 | 14.0 | 21.0 | 0.00 | 0.03 | 0.03 | 58 | 986.7 |
| 20260503190052 | 40 | 153 | 11.0 | 24.0 | 0.00 | 0.03 | 0.03 | 60 | 986.6 |
| 20260503184558 | 40 | 170 | 11.0 | 26.0 | 0.00 | 0.03 | 0.03 | 62 | 986.6 |
| 20260503183111 | 39 | 189 | 15.0 | 24.0 | 0.00 | 0.03 | 0.03 | 62 | 986.6 |